When you browse on this site, cookies collect data to enhance your experience and personalize the content and advertising you see.
Visit our Privacy Policy to learn more. By continuing to use the site, you agree to this use of cookies and data.
  • In Belgien
  • Länderverzeichnis
  • Für 7 Tage
  • Wassertemperatur
  • Satellitenkarten
  • Wetterkarte
  • Widgets
  • user-avatar
    Anmelden

    Stündliche Wetter Zaharovka

    Heute, 27 Mai, Montag

    Zeit Temperatur Niederschläge Wind Luftdruck Luftfeuchtigkeit
    00:00 +10°C° 0 mm 2 m/S 737 mmHg 80%
    01:00 +9°C° 0 mm 3 m/S 737 mmHg 84%
    02:00 +8°C° 0 mm 3 m/S 737 mmHg 88%
    03:00 +8°C° 0 mm 4 m/S 737 mmHg 87%
    04:00 +8°C° 0 mm 4 m/S 737 mmHg 85%
    05:00 +9°C° 0 mm 5 m/S 737 mmHg 84%
    06:00 +10°C° 0 mm 5 m/S 738 mmHg 80%
    07:00 +10°C° 0 mm 6 m/S 738 mmHg 75%
    08:00 +11°C° 0 mm 6 m/S 738 mmHg 71%
    09:00 +13°C° 0.1 mm 6 m/S 739 mmHg 68%
    10:00 +13°C° 0.1 mm 6 m/S 739 mmHg 64%
    11:00 +14°C° 0.1 mm 6 m/S 739 mmHg 61%
    12:00 +14°C° 0 mm 5 m/S 739 mmHg 60%
    13:00 +15°C° 0 mm 5 m/S 740 mmHg 59%
    14:00 +16°C° 0 mm 5 m/S 740 mmHg 57%
    15:00 +16°C° 0 mm 5 m/S 740 mmHg 59%
    16:00 +17°C° 0 mm 4 m/S 740 mmHg 60%
    17:00 +18°C° 0 mm 4 m/S 740 mmHg 61%
    18:00 +17°C° 0 mm 4 m/S 741 mmHg 67%
    19:00 +14°C° 0 mm 4 m/S 741 mmHg 73%
    20:00 +13°C° 0 mm 4 m/S 741 mmHg 80%
    21:00 +13°C° 0.5 mm 4 m/S 741 mmHg 84%
    22:00 +13°C° 0.5 mm 4 m/S 740 mmHg 89%
    23:00 +13°C° 0.5 mm 5 m/S 740 mmHg 93%

    Morgen, 28 Mai, Dienstag

    Zeit Temperatur Niederschläge Wind Luftdruck Luftfeuchtigkeit
    00:00 +13°C° 0.1 mm 4 m/S 741 mmHg 94%
    01:00 +13°C° 0.1 mm 4 m/S 741 mmHg 94%
    02:00 +13°C° 0.1 mm 4 m/S 741 mmHg 95%
    03:00 +13°C° 0 mm 4 m/S 742 mmHg 95%
    04:00 +13°C° 0 mm 3 m/S 742 mmHg 95%
    05:00 +13°C° 0 mm 3 m/S 743 mmHg 95%
    06:00 +14°C° 0 mm 3 m/S 743 mmHg 90%
    07:00 +16°C° 0 mm 3 m/S 743 mmHg 86%
    08:00 +17°C° 0 mm 4 m/S 744 mmHg 81%
    09:00 +18°C° 0 mm 3 m/S 744 mmHg 77%
    10:00 +19°C° 0 mm 3 m/S 744 mmHg 73%
    11:00 +20°C° 0 mm 3 m/S 745 mmHg 70%
    12:00 +21°C° 0.1 mm 3 m/S 745 mmHg 67%
    13:00 +22°C° 0.1 mm 3 m/S 745 mmHg 65%
    14:00 +24°C° 0.1 mm 3 m/S 745 mmHg 63%
    15:00 +24°C° 0.1 mm 3 m/S 745 mmHg 65%
    16:00 +24°C° 0.1 mm 2 m/S 745 mmHg 67%
    17:00 +24°C° 0.1 mm 2 m/S 745 mmHg 69%
    18:00 +23°C° 0.3 mm 2 m/S 744 mmHg 75%
    19:00 +20°C° 0.3 mm 2 m/S 744 mmHg 81%
    20:00 +19°C° 0.3 mm 2 m/S 744 mmHg 88%
    21:00 +18°C° 0.2 mm 3 m/S 744 mmHg 90%
    22:00 +18°C° 0.2 mm 3 m/S 744 mmHg 92%
    23:00 +17°C° 0.2 mm 3 m/S 744 mmHg 93%

    übermorgen, 29 Mai, Mittwoch

    Zeit Temperatur Niederschläge Wind Luftdruck Luftfeuchtigkeit
    00:00 +17°C° 0 mm 4 m/S 744 mmHg 93%
    01:00 +17°C° 0 mm 4 m/S 744 mmHg 93%
    02:00 +17°C° 0 mm 4 m/S 744 mmHg 93%
    03:00 +17°C° 0 mm 4 m/S 744 mmHg 92%
    04:00 +17°C° 0 mm 5 m/S 744 mmHg 91%
    05:00 +17°C° 0 mm 5 m/S 744 mmHg 91%
    06:00 +19°C° 0 mm 5 m/S 745 mmHg 85%
    07:00 +21°C° 0 mm 6 m/S 745 mmHg 80%
    08:00 +22°C° 0 mm 6 m/S 745 mmHg 75%
    09:00 +23°C° 0 mm 6 m/S 745 mmHg 69%
    10:00 +26°C° 0 mm 7 m/S 745 mmHg 63%
    11:00 +27°C° 0 mm 7 m/S 745 mmHg 57%
    12:00 +27°C° 0 mm 7 m/S 745 mmHg 55%
    13:00 +28°C° 0 mm 7 m/S 745 mmHg 54%
    14:00 +28°C° 0 mm 7 m/S 745 mmHg 52%
    15:00 +28°C° 0 mm 6 m/S 745 mmHg 56%
    16:00 +28°C° 0 mm 5 m/S 744 mmHg 59%
    17:00 +27°C° 0 mm 4 m/S 744 mmHg 62%
    18:00 +26°C° 0 mm 4 m/S 744 mmHg 66%
    19:00 +23°C° 0 mm 4 m/S 745 mmHg 69%
    20:00 +22°C° 0 mm 4 m/S 745 mmHg 73%
    21:00 +21°C° 0 mm 4 m/S 745 mmHg 75%
    22:00 +20°C° 0 mm 4 m/S 745 mmHg 78%
    23:00 +19°C° 0 mm 4 m/S 746 mmHg 80%

    30 Mai, Donnerstag

    Zeit Temperatur Niederschläge Wind Luftdruck Luftfeuchtigkeit
    00:00 +19°C° 0 mm 3 m/S 746 mmHg 83%
    01:00 +18°C° 0 mm 3 m/S 746 mmHg 86%
    02:00 +17°C° 0 mm 3 m/S 746 mmHg 90%
    03:00 +18°C° 0 mm 3 m/S 746 mmHg 90%
    04:00 +18°C° 0 mm 4 m/S 747 mmHg 90%
    05:00 +19°C° 0 mm 4 m/S 747 mmHg 90%
    06:00 +19°C° 0.6 mm 4 m/S 747 mmHg 87%
    07:00 +20°C° 0.6 mm 5 m/S 747 mmHg 85%
    08:00 +21°C° 0.6 mm 5 m/S 747 mmHg 82%
    09:00 +22°C° 0.8 mm 5 m/S 747 mmHg 81%
    10:00 +22°C° 0.8 mm 5 m/S 747 mmHg 80%
    11:00 +22°C° 0.8 mm 4 m/S 747 mmHg 79%
    12:00 +22°C° 1 mm 4 m/S 748 mmHg 80%
    13:00 +22°C° 1 mm 3 m/S 748 mmHg 81%
    14:00 +22°C° 1 mm 3 m/S 748 mmHg 82%
    15:00 +21°C° 1.6 mm 2 m/S 747 mmHg 85%
    16:00 +22°C° 1.6 mm 1 m/S 747 mmHg 88%
    17:00 +21°C° 1.6 mm 1 m/S 747 mmHg 90%
    18:00 +21°C° 0.1 mm 1 m/S 748 mmHg 92%
    19:00 +18°C° 0.1 mm 0 m/S 748 mmHg 93%
    20:00 +17°C° 0.1 mm 0 m/S 748 mmHg 95%
    21:00 +17°C° 0 mm 0 m/S 748 mmHg 95%
    22:00 +18°C° 0 mm 1 m/S 748 mmHg 96%
    23:00 +18°C° 0 mm 1 m/S 748 mmHg 96%

    31 Mai, Freitag

    Zeit Temperatur Niederschläge Wind Luftdruck Luftfeuchtigkeit
    00:00 +16°C° 0 mm 1 m/S 748 mmHg 96%
    01:00 +15°C° 0 mm 1 m/S 748 mmHg 97%
    02:00 +15°C° 0 mm 1 m/S 748 mmHg 97%
    03:00 +15°C° 0 mm 1 m/S 748 mmHg 96%
    04:00 +15°C° 0 mm 1 m/S 748 mmHg 95%
    05:00 +16°C° 0 mm 1 m/S 748 mmHg 94%
    06:00 +18°C° 0 mm 1 m/S 748 mmHg 89%
    07:00 +20°C° 0 mm 1 m/S 748 mmHg 84%
    08:00 +20°C° 0 mm 0 m/S 748 mmHg 80%
    09:00 +21°C° 0 mm 0 m/S 748 mmHg 75%
    10:00 +22°C° 0 mm 0 m/S 748 mmHg 71%
    11:00 +23°C° 0 mm 0 m/S 748 mmHg 67%
    12:00 +23°C° 0 mm 0 m/S 748 mmHg 64%
    13:00 +26°C° 0 mm 1 m/S 748 mmHg 62%
    14:00 +26°C° 0 mm 1 m/S 748 mmHg 59%
    15:00 +26°C° 0 mm 1 m/S 748 mmHg 61%
    16:00 +26°C° 0 mm 1 m/S 747 mmHg 62%
    17:00 +26°C° 0 mm 1 m/S 747 mmHg 63%
    18:00 +24°C° 0 mm 1 m/S 747 mmHg 69%
    19:00 +23°C° 0 mm 1 m/S 747 mmHg 75%
    20:00 +21°C° 0 mm 1 m/S 747 mmHg 81%
    21:00 +21°C° 0.1 mm 1 m/S 747 mmHg 84%
    22:00 +20°C° 0.1 mm 1 m/S 747 mmHg 87%
    23:00 +19°C° 0.1 mm 1 m/S 747 mmHg 90%

    1 Juni, Samstag

    Zeit Temperatur Niederschläge Wind Luftdruck Luftfeuchtigkeit
    00:00 +19°C° 0.2 mm 1 m/S 747 mmHg 91%
    01:00 +19°C° 0.2 mm 1 m/S 747 mmHg 93%
    02:00 +17°C° 0.2 mm 2 m/S 747 mmHg 95%
    03:00 +18°C° 0.3 mm 2 m/S 747 mmHg 94%
    04:00 +18°C° 0.3 mm 2 m/S 747 mmHg 94%
    05:00 +19°C° 0.3 mm 2 m/S 747 mmHg 94%
    06:00 +20°C° 0.5 mm 2 m/S 747 mmHg 91%
    07:00 +21°C° 0.5 mm 2 m/S 746 mmHg 89%
    08:00 +23°C° 0.5 mm 2 m/S 746 mmHg 86%
    09:00 +24°C° 0.3 mm 2 m/S 746 mmHg 78%
    10:00 +25°C° 0.3 mm 3 m/S 746 mmHg 70%
    11:00 +27°C° 0.3 mm 4 m/S 746 mmHg 62%
    12:00 +27°C° 0.8 mm 4 m/S 746 mmHg 65%
    13:00 +26°C° 0.8 mm 4 m/S 745 mmHg 68%
    14:00 +26°C° 0.8 mm 3 m/S 745 mmHg 71%
    15:00 +26°C° 1.2 mm 3 m/S 745 mmHg 75%
    16:00 +25°C° 1.2 mm 3 m/S 745 mmHg 79%
    17:00 +24°C° 1.2 mm 2 m/S 745 mmHg 82%
    18:00 +23°C° 1 mm 2 m/S 745 mmHg 86%
    19:00 +20°C° 1 mm 2 m/S 745 mmHg 90%
    20:00 +19°C° 1 mm 2 m/S 745 mmHg 94%
    21:00 +18°C° 0.4 mm 3 m/S 746 mmHg 94%
    22:00 +17°C° 0.4 mm 3 m/S 746 mmHg 95%
    23:00 +15°C° 0.4 mm 4 m/S 747 mmHg 95%
    Mehr zeigen